Theta_e
308 304 306 324 329 329 329 328 327 326 325 325 325 326 327 326 325 325 324 325 325 326 326 326 326 327 327 327 327 327 327 327 327 327 327 326 327 328 328 329 328 329 331 331 332 332 332 332 332 333 333 334 335 336 335 336 336 334 333 333 334 334 334 333 333 333 332 333 334 335 335 335 333 335 335 336 337 338 335 337 337 336 336 337 342
309 306 305 308 330 329 329 328 326 326 325 325 325 326 327 325 325 323 323 323 324 325 325 326 326 327 327 327 326 327 327 327 327 327 326 326 327 328 328 328 329 329 330 330 331 332 331 332 333 336 336 336 335 334 334 335 334 333 333 332 332 332 333 333 333 332 332 332 332 334 333 334 334 334 335 336 336 337 334 335 336 334 332 340 340
307 306 304 307 328 329 327 327 326 325 325 325 325 327 325 324 323 323 323 324 324 324 325 325 326 326 326 326 327 326 326 327 326 326 325 326 326 327 328 328 329 330 330 330 330 331 331 334 335 336 335 334 333 332 331 332 332 331 331 331 330 331 331 332 331 331 331 331 332 332 332 333 334 334 336 337 335 335 335 334 334 336 332 338 339
306 305 303 310 329 327 326 326 325 326 326 326 326 326 324 323 323 323 323 323 323 323 324 325 325 324 325 325 325 326 326 326 325 325 325 325 326 327 328 328 328 329 330 330 330 330 333 335 334 333 332 332 330 330 330 331 330 329 329 330 330 330 330 331 330 330 330 329 329 329 328 323 326 330 333 334 334 334 332 333 333 334 336 336 337
306 303 303 306 316 326 326 326 325 326 325 326 326 324 323 323 323 323 322 322 322 323 324 324 324 324 324 324 324 325 325 325 324 324 324 325 325 326 328 328 328 329 329 329 329 330 334 334 332 330 329 329 329 330 329 329 329 329 329 330 330 331 330 330 329 329 328 329 329 329 322 322 321 328 332 332 333 333 332 332 332 332 333 336 338
303 302 303 305 309 318 325 324 324 326 325 326 325 324 323 322 323 322 321 322 322 323 323 323 323 323 323 323 323 324 324 324 323 323 323 324 324 325 326 328 328 328 328 328 329 331 333 332 330 327 328 329 328 329 329 329 329 330 330 330 330 329 329 329 328 328 328 328 327 325 321 321 321 323 330 332 331 331 331 331 332 334 334 335 336
302 301 303 305 307 316 324 324 324 325 325 326 325 323 323 323 320 320 321 320 322 323 323 322 322 322 322 322 323 323 323 323 323 323 323 323 323 324 325 326 327 327 327 327 329 333 333 332 330 327 327 328 328 329 328 329 329 329 330 330 329 328 329 328 328 327 327 326 320 320 319 320 320 321 330 332 331 330 330 332 333 334 334 335 335
301 303 303 305 306 321 323 323 324 325 325 325 324 323 322 322 320 320 319 321 321 322 321 321 321 321 322 322 322 322 322 322 322 322 322 322 323 324 325 325 326 327 328 328 330 333 333 331 330 328 326 327 328 328 328 328 329 329 329 329 329 328 328 327 327 326 327 322 319 320 319 319 320 320 328 331 332 330 330 331 332 333 333 333 333
301 301 304 304 305 322 322 323 324 325 325 325 324 322 322 322 321 318 319 320 320 321 321 320 320 321 321 321 321 321 321 321 321 322 322 323 322 324 325 325 326 326 327 328 330 332 332 331 331 329 326 327 328 327 328 329 329 330 329 328 328 327 327 326 326 325 323 318 318 318 319 319 319 320 326 331 330 330 330 330 331 332 332 331 332
300 300 301 301 302 323 322 323 324 325 324 324 323 322 322 323 320 319 318 319 320 320 320 319 319 320 320 320 320 320 320 321 321 322 322 322 321 323 325 325 325 326 327 328 331 331 331 331 330 328 326 326 328 329 328 328 329 329 329 328 327 327 326 326 326 324 319 317 317 318 319 324 320 319 323 330 330 330 329 328 328 328 330 330 331
298 299 300 300 300 321 323 322 323 324 324 324 323 322 322 322 320 319 317 318 318 318 319 319 319 319 320 320 320 320 320 320 320 321 321 321 320 322 323 324 325 325 326 327 330 330 331 330 330 329 325 327 328 328 328 329 328 329 329 328 327 326 325 325 324 315 316 316 316 317 319 323 320 321 327 328 329 329 328 328 329 329 330 331 333
298 297 298 299 308 319 323 322 322 323 324 324 323 323 322 321 320 318 318 317 317 318 318 318 318 318 318 319 319 319 320 320 321 320 319 319 319 321 322 323 323 324 326 328 329 329 330 330 329 329 326 326 328 327 327 328 328 329 329 327 327 326 326 325 321 316 314 315 316 319 318 319 318 320 325 326 329 329 328 329 330 330 332 333 334
297 297 297 297 301 317 323 322 321 321 323 323 323 322 322 322 320 319 318 316 317 317 317 317 317 317 318 318 318 319 319 320 320 318 318 317 318 320 321 322 323 324 325 328 329 329 329 330 329 329 329 326 327 327 328 328 328 328 329 329 328 327 326 325 318 317 315 314 316 317 317 317 318 325 326 327 327 328 328 328 330 331 332 332 334
297 297 296 297 299 313 323 322 321 320 321 322 322 322 323 322 321 320 318 318 316 316 316 316 317 317 317 317 318 318 319 319 318 316 317 316 317 318 319 321 323 324 326 328 328 328 329 329 329 329 328 326 327 327 327 327 328 328 329 329 328 327 326 325 323 317 316 315 317 316 316 319 318 326 327 327 326 327 330 331 331 330 331 333 334
298 297 297 297 301 305 322 323 321 320 320 320 321 321 322 322 321 320 319 317 316 315 315 316 315 316 316 317 317 317 317 317 317 315 315 315 316 317 318 320 322 325 325 326 327 328 328 329 329 329 329 328 328 328 328 328 328 328 328 328 328 327 326 321 320 316 315 316 316 317 315 316 323 328 328 327 328 329 330 330 330 331 331 332 334
298 298 299 298 300 302 310 321 322 322 320 319 319 319 320 320 320 320 319 317 315 315 315 315 315 315 315 316 316 316 317 316 315 315 315 314 316 316 316 319 321 324 324 326 326 326 328 328 329 330 330 330 330 329 329 329 328 327 327 328 327 326 324 322 318 316 314 313 314 316 316 317 326 328 327 330 330 330 330 331 331 332 333 335 335
298 299 299 299 300 301 307 310 316 323 323 323 322 319 319 319 320 320 319 317 315 314 314 314 313 314 314 314 315 315 316 315 315 315 315 315 315 315 315 318 320 322 323 325 326 326 327 328 329 329 330 330 329 329 328 327 327 327 327 327 326 325 323 322 317 315 314 316 318 318 318 319 324 328 329 327 330 331 330 331 332 332 333 335 335
297 297 299 299 300 302 306 307 310 313 309 318 323 320 319 319 319 320 319 317 315 314 313 313 313 313 314 313 314 315 315 315 315 315 314 315 315 314 315 318 319 321 322 323 324 325 326 327 328 329 329 329 328 327 326 327 326 326 327 326 325 324 323 322 318 317 317 321 320 319 319 323 328 329 331 331 330 331 333 332 332 332 334 336 337
296 296 298 298 300 301 304 306 306 306 307 306 306 313 321 320 320 320 319 317 315 313 313 314 313 314 314 315 316 316 314 314 315 315 315 315 314 314 315 317 319 320 321 322 323 325 325 326 327 328 329 328 327 326 326 326 325 325 326 325 325 324 323 321 319 319 320 319 320 320 320 327 329 329 330 330 330 330 331 332 332 335 337 337 338
296 297 297 298 299 300 302 304 304 304 304 305 305 304 317 322 322 321 319 318 316 314 315 314 315 315 317 316 316 312 310 306 313 307 315 313 313 313 314 315 318 318 319 320 322 323 324 325 326 328 328 328 327 326 325 325 326 325 325 324 324 323 319 320 320 319 320 321 323 323 325 330 330 331 331 332 331 331 331 331 332 331 333 339 340
297 297 297 298 298 299 300 301 302 302 303 303 303 302 305 319 321 322 321 319 318 316 318 318 318 316 314 314 312 301 300 298 299 300 312 306 312 312 314 314 315 316 318 319 320 321 322 323 325 327 327 327 325 324 325 325 325 325 323 323 323 321 320 321 320 320 320 321 323 323 329 333 331 331 331 332 332 331 332 332 331 331 338 338 340
296 297 298 297 298 298 299 300 301 301 301 304 303 302 303 313 308 308 310 313 318 318 312 307 315 304 311 303 299 303 299 297 299 307 303 305 305 312 313 312 313 314 316 316 317 318 320 321 324 325 326 325 324 319 320 322 323 323 323 323 322 321 319 320 320 320 320 321 324 326 328 330 333 334 334 334 332 332 334 336 332 332 336 337 338
295 296 298 298 298 299 298 300 300 301 301 300 303 302 301 302 305 303 305 315 311 309 305 307 303 301 301 299 303 299 299 300 299 306 307 309 305 310 310 310 310 311 313 312 313 314 317 317 320 322 323 323 319 319 318 318 320 322 322 322 322 321 320 320 320 319 319 320 322 327 329 328 333 335 334 333 333 334 333 333 334 335 335 335 335
296 297 298 298 298 299 299 299 300 300 301 302 302 301 300 299 303 303 304 301 300 302 301 300 300 299 298 298 299 299 299 295 306 306 306 298 298 304 307 306 305 305 310 304 307 308 312 312 315 318 317 317 318 320 320 318 319 320 321 321 321 321 320 320 319 318 318 320 321 328 328 330 329 331 335 333 332 333 337 335 335 335 335 336 334
296 295 298 299 299 299 299 298 299 299 300 301 302 301 300 299 299 301 300 299 297 297 297 298 298 298 297 298 296 299 295 295 295 295 296 296 295 296 297 296 297 297 306 297 298 299 302 302 305 309 310 314 317 319 320 319 319 319 319 320 320 320 320 319 319 318 318 319 321 327 328 330 331 330 331 335 334 334 335 335 334 334 333 334 334
295 295 297 298 299 299 299 299 299 298 300 301 302 302 304 299 300 300 299 297 297 297 296 296 296 297 297 297 299 295 295 294 294 294 295 296 296 296 296 296 295 297 300 297 298 298 299 301 303 305 308 312 316 318 320 320 319 319 318 318 319 318 319 319 318 318 317 318 320 324 328 330 332 331 333 333 335 335 335 335 336 335 334 333 334
295 297 297 297 298 298 298 298 298 299 299 300 301 302 301 301 300 299 298 299 296 296 296 295 297 296 295 297 298 295 294 293 294 294 295 295 295 295 295 295 295 296 299 297 298 298 298 300 302 303 306 311 315 318 319 319 319 318 317 317 317 317 317 316 316 316 316 317 319 322 327 329 331 332 332 333 333 336 335 335 334 334 333 334 334
294 296 296 297 299 298 298 298 299 298 299 298 299 300 299 299 299 302 303 300 298 296 296 296 296 296 296 297 301 294 295 295 294 294 295 294 295 294 294 294 295 296 298 298 297 297 298 298 301 302 304 309 315 317 317 318 318 318 316 316 315 315 314 314 314 314 315 315 316 319 323 327 330 330 332 335 336 335 337 335 335 334 334 334 334
295 296 296 296 297 299 298 298 298 300 299 298 299 299 298 299 297 298 299 303 297 297 295 296 296 296 297 297 298 294 294 294 294 295 293 294 294 294 294 294 295 296 297 297 297 297 297 298 300 300 303 306 311 316 317 317 317 317 315 313 313 312 312 312 312 312 313 314 314 317 320 324 327 332 332 333 334 335 335 335 335 336 334 334 334
296 297 296 297 297 297 298 299 299 300 300 298 299 298 298 298 297 298 298 302 298 296 295 296 295 295 296 297 299 295 294 294 294 293 294 295 294 294 294 294 294 295 296 296 297 297 297 297 299 300 302 305 310 314 317 316 316 315 313 311 310 310 310 310 310 310 311 312 313 313 317 320 324 328 332 333 333 334 334 334 337 338 337 332 333
296 296 296 297 298 296 298 299 299 302 299 299 298 299 299 298 299 297 297 300 298 296 297 295 294 295 297 296 297 298 295 294 294 293 293 294 293 293 293 294 294 295 295 296 296 297 297 297 298 298 301 305 310 313 316 315 314 312 311 309 308 308 308 308 309 309 309 310 311 312 313 315 318 323 326 331 332 332 332 332 334 335 338 336 335
295 296 297 296 296 297 298 298 299 300 301 299 301 299 298 298 298 297 296 298 297 295 295 295 298 296 296 295 296 297 297 293 294 293 294 294 293 293 292 294 294 294 295 294 296 297 297 297 298 300 302 307 310 312 314 314 312 311 309 308 307 306 306 306 306 306 307 308 309 310 310 311 313 316 319 322 328 330 331 331 332 332 333 335 335
297 298 297 296 296 297 297 298 299 299 300 299 299 300 299 298 298 297 297 298 297 296 296 296 297 295 295 295 295 296 298 296 294 295 297 292 294 293 293 294 293 293 294 294 295 295 296 297 299 302 305 308 310 310 312 310 308 308 307 306 305 304 304 304 303 304 304 305 306 306 307 307 308 311 313 315 318 325 331 329 330 330 331 332 334
297 297 295 296 298 298 299 299 298 299 300 300 299 298 298 297 298 296 298 297 295 295 297 296 296 295 296 295 295 296 296 294 295 293 293 293 292 292 293 293 293 294 294 294 294 294 295 297 298 303 305 306 308 308 306 305 305 304 303 302 302 301 301 301 301 302 302 303 303 303 303 304 305 305 307 310 313 317 325 331 330 330 330 332 334
297 296 296 297 297 298 299 299 301 298 301 299 300 299 297 297 297 296 297 297 296 296 295 295 294 295 296 295 295 297 294 295 293 295 293 293 292 293 294 293 293 294 293 293 293 295 295 295 297 304 304 305 305 305 303 302 301 300 300 300 299 299 299 299 300 300 300 301 301 300 300 301 301 301 303 304 308 311 317 324 329 331 333 332 335
297 297 297 297 296 296 299 298 299 298 300 300 299 299 298 297 297 299 297 295 296 296 294 295 295 294 296 296 294 296 294 294 294 294 294 292 292 293 294 293 294 292 294 293 294 294 294 295 295 299 303 301 302 301 301 299 299 298 299 299 299 299 298 298 298 299 299 299 298 298 298 299 299 299 301 301 302 306 312 316 323 329 331 332 332
297 297 297 296 296 296 300 298 298 298 299 299 298 296 296 296 296 298 296 296 295 295 294 294 295 296 295 295 295 297 294 294 293 293 295 293 292 294 293 293 294 292 292 292 293 293 293 295 295 298 302 300 299 298 298 298 297 297 297 296 296 297 296 297 297 297 298 297 296 296 296 297 298 299 298 298 299 300 305 309 314 321 324 328 331
296 297 297 297 297 297 298 299 299 299 299 299 298 297 296 296 295 296 297 295 295 295 294 294 295 295 295 295 295 297 295 293 292 293 293 293 292 293 292 292 292 292 292 293 292 291 292 295 296 297 300 300 297 296 295 296 296 295 295 294 295 295 295 295 296 297 296 295 295 295 295 295 295 296 296 297 297 298 300 303 308 312 315 320 327
296 297 296 297 296 296 298 299 299 298 298 298 297 295 295 293 292 293 294 293 292 292 293 294 294 295 295 295 295 298 297 292 293 293 294 294 292 292 293 292 292 292 293 292 292 292 293 293 299 299 299 299 297 295 295 295 294 294 293 293 294 294 294 295 295 295 294 294 294 295 294 294 294 294 294 295 296 296 297 299 300 302 306 314 320
295 296 296 296 296 296 297 298 298 298 297 296 296 295 295 296 295 293 293 294 292 294 292 294 294 295 295 295 296 295 295 295 292 292 294 294 294 292 293 291 291 291 292 293 291 292 294 297 298 299 298 297 296 295 294 294 293 293 293 293 293 293 293 293 293 293 293 293 292 292 292 292 292 292 292 293 293 293 294 295 297 298 301 307 313
294 295 296 295 296 297 298 298 298 297 298 296 296 296 295 293 293 294 295 294 294 293 295 292 294 294 294 294 295 295 294 295 294 293 294 297 294 292 292 291 291 292 292 292 290 290 291 296 298 299 297 296 294 293 293 293 293 291 292 292 292 293 293 292 291 291 291 291 291 290 290 290 290 290 290 291 290 291 291 292 293 295 297 300 305
294 295 295 296 297 297 298 298 297 297 298 298 298 297 296 297 295 295 291 291 294 294 294 293 294 294 294 294 295 294 294 295 295 292 294 294 293 292 293 292 292 292 291 290 290 295 292 294 297 296 294 296 294 294 294 291 291 289 289 288 291 292 292 291 290 290 290 290 290 289 289 288 288 288 289 289 288 289 289 290 291 292 294 296 299
295 295 296 296 296 296 298 298 298 298 298 298 298 298 296 296 296 292 295 291 291 292 292 293 295 295 294 294 294 293 294 293 293 294 294 292 294 293 294 292 292 295 292 291 290 291 291 295 296 297 294 290 293 291 291 290 289 289 288 289 285 285 290 289 290 289 289 289 289 288 288 287 286 287 287 287 286 287 288 288 289 291 292 294 296
294 294 294 295 296 297 297 298 298 298 298 298 300 297 297 294 293 294 293 293 294 292 290 292 292 292 294 292 291 293 293 294 292 293 293 293 293 294 293 292 292 293 292 292 290 291 290 291 292 296 297 295 292 294 291 289 291 291 288 286 285 285 282 285 285 287 288 287 287 286 286 285 285 285 285 284 285 285 286 288 288 289 291 292 294
294 295 295 296 297 297 298 298 298 298 298 299 299 297 297 294 294 294 294 294 294 292 292 292 291 292 292 291 294 291 292 293 292 293 294 293 291 292 293 293 293 292 292 292 292 293 292 292 293 296 296 296 293 289 290 288 291 289 290 286 285 285 282 284 284 285 287 286 286 285 285 284 284 284 283 283 284 284 285 286 287 288 289 290 292
294 295 296 297 297 297 297 297 297 297 298 298 298 298 298 296 295 295 294 292 292 292 294 295 294 294 295 291 291 291 292 292 291 292 293 293 292 292 292 293 292 292 292 292 292 289 290 290 292 297 295 293 296 290 292 290 289 289 288 288 288 286 285 286 282 281 285 285 285 284 283 282 282 282 282 282 282 283 285 285 286 286 287 287 289
294 294 294 296 296 297 297 297 298 297 297 298 297 299 296 296 297 297 297 296 295 295 293 293 296 294 292 293 293 290 290 293 291 291 292 292 292 291 292 293 293 292 293 291 290 292 292 292 291 291 295 293 292 294 294 292 289 289 288 287 288 288 291 287 281 282 281 282 283 282 281 281 281 281 281 281 282 282 283 284 284 284 285 285 286
292 293 294 295 296 297 297 297 298 298 297 298 297 299 297 296 296 296 296 295 296 296 295 294 292 293 292 292 292 291 290 290 292 291 291 292 292 291 291 291 292 291 292 291 292 290 289 289 291 289 289 292 294 296 293 290 294 291 288 288 289 290 286 285 286 286 283 280 279 281 281 280 280 280 280 280 281 281 281 282 283 282 283 283 284
292 294 294 295 296 295 297 296 297 297 297 297 298 297 298 297 297 296 295 296 295 292 293 292 293 293 292 289 290 291 291 290 290 291 291 291 293 292 290 290 291 291 294 291 289 289 290 291 290 289 290 290 292 292 292 292 291 289 288 286 289 287 286 287 285 284 282 279 279 279 278 280 279 279 280 280 280 281 281 281 282 281 282 281 281
291 292 292 293 293 293 296 296 296 297 296 296 298 297 297 297 296 295 295 295 294 291 291 292 292 291 292 291 291 290 291 290 290 289 290 290 291 291 291 291 291 291 293 290 288 288 288 289 290 291 289 290 288 290 293 292 292 290 291 289 287 285 286 285 283 284 284 282 281 279 278 277 276 277 279 279 279 280 280 280 280 280 279 279 280
289 291 292 293 293 294 295 295 296 296 296 296 297 297 297 297 296 296 295 295 293 292 292 291 290 289 292 292 291 292 290 292 290 290 289 289 289 291 291 291 291 292 293 289 289 290 289 289 288 287 288 289 288 288 288 288 289 289 289 291 291 291 289 286 286 284 282 281 280 278 277 277 276 276 277 278 279 279 279 279 279 278 278 278 279
Wind_Speed
9 4 4 10 13 13 11 10 10 9 8 8 7 6 5 4 3 3 1 1 1 2 3 4 4 5 7 7 8 9 9 10 10 10 11 11 12 12 12 12 12 14 15 16 17 17 17 17 18 18 19 20 20 20 21 21 21 19 19 19 19 21 21 21 21 20 19 19 19 20 20 19 19 20 19 18 17 16 15 14 12 7 6 6 12
9 7 5 5 12 12 11 10 9 9 8 8 7 6 5 4 4 2 2 0 2 2 3 3 4 5 7 7 8 9 9 10 10 11 11 11 12 12 12 12 12 14 15 16 17 17 17 17 19 21 20 19 20 20 20 21 21 20 20 20 20 19 19 20 21 20 20 20 20 20 19 20 19 19 19 20 18 17 15 15 14 7 3 8 13
3 6 5 6 10 12 11 10 10 9 9 8 7 6 5 5 4 3 1 2 1 2 3 3 4 5 6 7 8 9 9 10 10 11 11 11 12 12 12 12 13 14 15 16 15 16 17 19 20 19 20 20 20 20 20 20 20 20 20 21 21 20 20 20 20 20 20 20 19 19 19 18 18 17 18 17 17 17 14 14 14 14 5 12 13
7 7 4 6 10 12 11 10 10 9 9 8 7 6 6 5 4 2 2 1 2 2 2 3 4 6 6 7 8 9 9 10 10 11 11 11 11 11 11 12 13 14 15 15 15 16 18 19 19 20 20 19 18 18 18 19 19 19 19 20 21 22 22 21 21 20 20 19 19 18 7 4 7 13 17 17 17 18 17 15 15 15 14 15 16
7 5 5 4 4 9 11 10 10 10 9 8 7 7 6 5 3 2 2 1 1 2 3 4 4 5 7 7 8 9 9 10 10 10 11 11 11 11 11 12 13 14 14 15 15 16 18 18 18 19 18 18 18 18 18 18 19 19 20 22 23 22 22 22 21 20 19 18 17 13 3 4 4 9 15 17 17 17 16 15 14 15 15 15 15
6 5 4 4 2 5 11 10 10 10 9 9 8 7 6 4 3 2 2 1 1 2 2 4 5 6 7 7 8 9 9 10 10 10 10 11 11 11 11 12 13 14 13 14 15 17 18 17 18 19 19 18 18 18 19 19 19 20 21 22 22 21 21 21 21 20 19 18 17 5 4 5 6 6 14 17 18 17 15 14 13 13 15 17 17
7 5 5 4 3 5 11 10 10 10 9 9 8 7 6 5 3 2 1 0 2 2 3 4 5 6 6 7 8 8 9 9 10 10 10 10 10 11 11 12 13 13 13 14 15 17 18 19 19 19 17 18 18 18 18 19 20 21 21 22 22 22 21 21 21 20 19 12 3 4 5 6 6 5 12 15 18 18 16 15 15 16 16 18 19
4 5 5 4 3 5 10 10 10 10 9 9 8 7 6 4 3 2 0 1 1 2 3 4 5 5 6 7 8 8 9 9 9 9 9 10 10 10 11 11 12 12 13 14 15 18 18 19 19 19 16 17 18 18 18 19 20 22 22 21 21 21 20 20 20 18 17 6 5 5 5 5 6 5 11 16 17 19 18 17 16 17 17 18 18
5 4 5 4 4 7 10 11 10 9 9 9 8 7 6 5 3 2 0 1 1 2 3 4 4 5 6 7 7 8 8 8 9 9 9 10 10 10 10 11 11 12 14 14 16 18 18 19 19 20 16 17 18 18 19 19 20 21 21 21 20 19 18 18 17 17 9 4 5 5 6 6 6 6 10 17 20 19 18 16 14 17 18 18 16
5 4 4 4 5 8 10 11 10 9 9 9 8 7 6 5 4 1 1 0 1 2 3 3 4 5 6 7 7 8 8 8 9 9 9 10 10 10 12 11 12 13 14 15 16 17 17 19 18 19 16 17 18 19 19 19 20 20 21 21 19 16 15 14 15 9 5 4 5 6 6 10 5 7 10 17 20 19 18 16 11 12 11 14 15
5 5 4 4 5 8 11 10 10 9 9 9 8 7 6 5 3 2 1 0 1 2 2 3 4 4 6 7 7 8 8 8 8 9 9 9 10 11 11 11 12 13 14 14 15 17 17 19 19 19 17 17 18 19 19 19 21 21 21 20 19 15 15 13 8 2 3 4 4 5 7 15 8 6 14 19 20 19 18 15 15 14 17 17 16
6 5 4 4 6 9 10 10 10 9 9 9 7 7 6 5 4 3 2 1 2 2 2 3 3 4 5 6 7 7 8 8 9 9 9 10 10 11 11 11 11 11 12 14 16 17 17 18 18 19 17 17 18 18 19 20 22 21 21 21 18 17 15 15 6 3 3 4 4 5 6 6 6 9 20 19 20 18 17 17 16 17 18 18 17
6 5 4 4 4 8 10 10 10 9 9 8 8 7 6 5 4 4 2 1 2 2 2 3 3 4 5 6 6 7 8 8 9 9 9 10 10 11 11 11 12 12 13 14 16 17 18 18 18 18 18 17 18 19 20 20 20 21 21 19 18 17 16 16 6 5 4 3 4 5 5 5 6 14 18 20 20 20 19 18 18 19 19 19 18
7 6 5 5 4 6 10 10 10 9 9 8 8 7 7 6 5 4 3 2 2 2 3 3 3 4 5 6 6 7 8 8 8 9 10 10 11 11 11 11 12 12 13 15 17 17 18 18 17 17 17 18 18 19 19 19 19 19 20 19 19 18 19 12 8 5 5 5 5 5 5 5 6 14 17 19 20 20 20 19 19 18 19 18 18
10 7 6 5 4 5 8 11 10 10 9 9 8 8 7 6 6 4 4 3 2 3 3 3 3 4 5 5 6 7 8 8 8 9 9 10 11 11 11 11 11 12 14 15 16 16 18 17 17 18 18 17 18 19 18 19 19 18 18 18 18 18 19 8 7 4 5 6 5 6 5 5 11 16 18 19 20 20 21 20 18 18 18 18 17
6 9 5 5 5 4 4 7 10 10 9 9 8 8 7 7 6 5 4 3 3 2 3 3 3 3 4 5 6 7 7 8 9 9 9 10 10 11 11 11 11 11 12 14 15 16 17 17 17 17 18 19 18 19 18 18 19 18 18 19 19 18 17 13 6 6 6 6 6 6 6 7 16 19 18 19 20 20 20 19 18 18 19 19 18
3 4 6 6 5 5 5 4 6 9 8 7 6 8 8 7 7 6 5 4 3 2 3 2 2 3 4 5 6 7 8 8 9 9 9 9 10 11 11 12 12 12 13 13 14 15 16 17 17 17 17 18 18 18 18 18 19 20 18 18 19 17 16 15 6 6 6 7 7 6 6 7 13 17 18 16 19 20 20 19 19 19 18 18 17
3 5 6 6 5 5 5 5 5 5 4 5 6 7 8 8 7 6 6 4 3 2 2 2 2 2 3 4 6 7 8 9 9 9 8 9 10 10 11 12 12 12 13 14 15 15 15 16 16 17 17 17 17 17 17 17 18 18 18 18 19 16 15 16 6 6 7 9 6 7 6 11 17 18 17 14 16 20 21 19 19 17 17 16 17
3 4 4 4 6 5 6 5 4 4 4 5 3 4 7 7 7 7 6 5 4 3 2 1 1 2 3 4 5 6 7 9 9 8 8 9 9 10 10 11 11 11 12 14 14 15 15 16 15 15 16 16 16 16 17 17 16 16 19 20 20 18 15 10 8 8 8 7 6 5 7 17 17 17 13 11 13 16 19 19 17 15 15 16 18
3 3 4 5 4 5 5 5 5 4 4 4 4 4 5 6 6 7 7 6 5 4 3 2 2 2 3 3 4 4 5 5 8 5 7 9 9 8 9 10 10 11 12 13 14 14 14 15 14 15 16 16 15 15 16 16 16 18 17 19 19 18 9 7 8 8 7 6 5 8 12 19 19 14 14 12 12 11 8 13 6 3 11 15 20
3 4 4 6 5 5 5 5 5 5 5 4 4 4 4 6 6 7 7 6 5 4 4 3 1 2 2 3 4 2 2 3 4 4 6 4 8 8 9 10 10 10 11 12 13 13 14 14 14 15 15 14 14 12 14 16 17 18 18 18 19 9 8 9 8 8 10 9 9 5 16 12 5 12 9 7 8 8 11 9 10 13 20 24 25
6 6 6 6 5 5 6 6 5 5 5 5 3 3 3 4 4 4 3 4 4 4 2 1 1 0 2 2 1 1 1 3 3 5 3 3 5 8 8 9 10 10 10 11 12 12 13 14 14 14 14 14 15 6 6 9 15 17 16 15 10 7 9 9 7 8 11 11 10 13 21 15 15 15 12 15 14 13 16 21 18 19 28 30 31
6 7 7 7 6 6 5 6 6 5 5 4 3 3 3 3 4 4 3 4 3 2 2 1 1 1 1 1 0 0 1 1 2 3 3 5 4 8 8 9 9 9 10 10 10 11 12 12 13 13 13 12 8 6 6 6 7 14 13 8 7 8 9 9 9 8 9 11 10 18 12 7 12 15 17 15 22 27 25 25 25 26 28 28 27
9 9 8 4 6 7 7 6 7 5 5 5 5 4 3 3 4 4 4 4 3 2 2 2 1 1 1 1 0 0 0 1 3 5 4 3 5 6 8 8 8 8 10 6 9 10 12 12 12 13 8 5 6 6 6 6 6 7 8 8 8 7 8 9 9 9 10 12 12 21 18 10 8 6 12 20 20 23 25 27 26 28 27 27 27
7 2 3 7 8 7 5 6 5 5 5 5 4 6 4 3 3 3 3 3 4 3 3 2 2 2 2 1 1 1 0 1 1 2 2 3 3 4 4 5 4 4 7 5 5 6 6 7 7 7 5 6 6 6 6 7 6 7 7 8 8 8 8 8 9 9 10 11 13 16 13 9 7 5 11 11 22 23 25 26 27 26 27 28 29
2 5 9 7 8 7 7 7 5 5 6 6 7 5 4 5 4 5 3 3 3 3 2 3 3 3 2 2 1 2 1 1 2 2 3 4 3 4 4 4 4 4 4 5 5 5 5 5 5 6 6 6 6 6 6 7 7 6 6 7 7 9 9 9 9 9 10 11 15 21 20 16 12 6 15 13 17 23 25 25 26 27 26 27 26
7 9 7 6 6 5 7 5 7 6 6 5 4 4 6 6 5 4 4 5 3 3 3 3 4 3 3 3 3 2 1 1 2 2 3 3 2 3 4 4 3 4 4 4 5 4 4 5 5 5 5 6 6 6 6 7 7 7 7 8 8 8 9 10 11 10 10 10 14 26 21 20 22 18 14 13 13 20 25 29 29 28 26 25 26
4 9 7 7 7 9 7 6 7 6 6 5 4 6 4 4 4 3 4 3 3 4 4 4 3 3 3 3 2 3 2 1 1 1 1 1 2 2 2 3 3 3 3 3 4 5 5 4 4 5 6 6 6 7 6 7 8 8 9 9 9 9 10 10 10 11 10 10 11 19 22 23 20 18 18 19 17 19 23 27 27 27 25 26 25
8 9 7 7 9 8 6 8 7 7 6 6 6 6 5 5 4 4 5 4 4 5 5 2 4 3 2 3 4 3 2 2 2 1 0 1 2 2 3 3 2 4 4 3 3 4 5 5 5 5 5 6 6 7 6 7 7 8 9 10 10 10 10 10 10 10 10 9 9 16 24 25 24 20 21 21 21 23 21 20 24 26 26 25 25
14 10 7 9 7 6 8 10 10 9 7 6 7 6 6 6 6 5 6 4 5 5 2 3 3 3 3 3 3 4 4 4 3 2 1 1 2 2 3 3 3 3 4 5 4 3 4 5 4 5 5 6 6 6 6 7 8 8 8 9 9 9 9 9 10 10 9 10 11 12 25 26 25 23 22 22 24 23 23 22 20 20 24 25 24
7 9 9 9 7 5 8 9 8 7 6 7 7 7 6 7 7 6 5 6 5 3 3 4 3 3 3 4 3 3 3 3 4 3 2 1 1 2 3 3 3 4 3 3 3 3 2 3 3 4 5 5 5 5 5 7 7 8 8 9 8 8 8 8 9 10 10 9 10 11 15 24 26 25 26 24 21 22 22 23 22 18 23 22 21
9 13 11 6 6 9 10 8 9 8 8 8 7 7 7 7 5 5 6 5 4 5 4 4 4 4 3 4 4 3 3 3 4 3 3 2 2 2 2 3 3 3 3 3 3 3 2 3 3 3 3 4 5 6 5 6 7 7 7 8 8 8 8 8 9 10 10 10 10 10 11 14 22 25 26 27 26 20 18 20 20 21 20 17 22
11 12 9 6 10 9 9 9 8 7 9 10 9 8 7 5 6 6 6 5 5 4 5 5 5 4 4 4 4 4 3 4 3 4 4 3 2 2 2 2 2 2 2 2 2 3 3 4 5 4 6 5 6 6 6 7 7 7 8 8 8 9 8 8 9 10 10 10 10 10 10 12 13 18 22 25 25 26 19 14 16 17 15 17 19
10 7 5 10 9 6 6 6 7 9 10 8 7 7 6 6 5 6 5 5 5 6 6 5 4 4 4 4 4 3 3 3 4 3 3 4 2 2 1 2 2 2 2 2 4 3 5 5 3 6 6 6 6 5 7 8 6 7 7 7 8 8 7 9 9 9 9 9 9 10 11 10 10 10 12 19 24 24 25 16 13 15 14 16 16
7 6 12 13 8 8 6 6 8 9 8 8 8 7 5 6 6 6 6 6 6 7 6 4 4 5 4 4 4 4 3 3 3 5 3 4 3 2 1 1 1 1 3 3 3 4 5 5 3 7 6 6 6 6 7 7 7 8 7 7 8 7 8 9 9 9 10 9 9 10 10 10 10 10 10 10 14 21 21 26 23 15 16 14 13
13 13 10 7 9 8 7 8 7 9 9 9 8 7 7 7 6 6 6 5 6 6 6 6 5 5 5 5 4 4 3 3 3 3 4 3 4 3 1 0 1 2 3 2 3 5 4 5 4 3 8 6 6 7 6 8 7 8 7 8 7 8 8 8 9 9 9 8 10 10 10 10 10 10 9 10 10 14 24 23 24 20 18 18 14
12 10 11 9 9 8 9 9 10 11 9 7 6 5 5 5 6 6 6 5 6 6 5 4 4 5 5 5 4 4 4 3 3 3 4 4 4 4 1 1 1 3 3 3 4 2 3 6 5 4 6 6 7 7 7 7 7 8 8 9 8 8 9 8 9 8 8 10 10 10 10 10 10 10 9 10 10 10 16 21 21 26 23 16 19
9 10 11 12 13 11 11 11 10 10 10 9 8 7 6 5 5 5 4 6 5 4 4 5 5 5 5 5 4 4 4 4 3 3 3 3 4 4 3 2 2 3 4 4 3 2 3 5 6 4 4 7 6 8 7 7 7 8 9 9 9 9 8 9 8 8 9 11 10 11 10 9 10 10 10 10 10 10 9 14 20 22 25 23 21
8 10 9 9 7 7 7 8 9 9 8 7 5 4 4 3 2 3 4 4 2 3 4 4 5 5 6 4 4 5 4 4 4 3 4 4 4 4 4 3 3 4 4 4 3 3 4 3 8 6 6 5 7 6 8 8 8 8 9 9 9 10 8 9 9 10 10 10 10 9 9 10 9 11 10 10 10 10 11 10 10 9 13 23 20
7 7 8 7 8 6 6 6 7 8 6 6 6 6 5 6 6 2 2 2 2 3 3 4 5 6 5 5 5 5 4 4 4 4 4 4 5 4 4 3 3 4 4 4 3 4 6 7 7 10 9 6 5 6 6 10 9 9 9 9 10 10 12 10 11 10 9 10 9 8 10 8 9 10 11 10 10 11 11 10 10 9 8 14 20
6 7 8 9 9 11 10 11 8 8 9 8 7 8 6 4 2 6 6 6 6 4 4 4 5 5 5 5 5 6 5 4 4 4 5 4 4 4 4 3 3 3 4 4 4 4 3 5 7 6 11 8 4 3 4 5 10 8 7 9 10 10 11 11 12 11 10 8 8 9 8 9 9 10 9 9 10 11 10 11 10 9 10 9 11
7 8 11 12 11 9 11 11 8 9 10 10 10 8 7 8 7 7 4 5 5 6 4 5 6 5 5 5 5 5 5 5 4 4 4 5 5 5 5 5 4 4 3 3 3 3 4 5 7 6 2 7 6 5 5 2 5 5 6 4 7 7 8 11 12 11 10 9 8 9 8 9 10 8 8 8 10 10 10 9 9 10 10 8 9
9 11 10 9 8 9 10 9 10 10 10 9 9 9 5 5 5 5 7 3 0 1 3 4 5 6 5 5 5 5 5 4 4 4 5 4 6 6 6 5 5 5 5 4 4 4 5 7 7 9 6 1 3 2 1 0 5 4 3 5 1 4 6 7 7 11 10 9 9 10 9 9 11 9 7 8 9 10 9 9 10 10 10 10 9
5 5 6 9 8 9 8 9 10 9 10 10 10 6 6 5 4 5 4 4 4 3 2 2 3 2 5 4 3 4 5 5 4 4 4 5 6 6 5 5 6 5 6 6 5 5 5 4 4 5 8 7 4 5 0 1 4 7 2 2 2 4 3 5 4 7 7 9 11 10 8 9 9 9 9 11 10 9 9 9 11 10 10 10 9
6 8 9 10 10 13 12 12 11 11 9 9 9 8 8 6 6 6 5 5 5 4 3 2 3 3 2 3 6 4 4 5 4 4 5 6 5 5 6 6 6 5 4 6 6 7 7 6 6 7 8 9 7 3 2 1 5 1 6 5 2 2 1 3 2 6 8 9 11 10 9 10 10 10 9 9 8 9 9 10 10 10 11 11 11
8 9 10 10 8 9 8 8 7 8 10 10 10 10 10 10 8 8 6 4 5 5 9 10 8 7 8 4 3 4 4 4 4 4 5 4 5 5 5 6 5 5 5 6 5 4 5 5 7 8 7 4 8 6 4 0 2 1 1 1 3 3 8 5 2 1 3 6 6 8 9 9 8 9 8 9 10 9 9 9 10 10 11 11 10
9 4 5 7 7 7 8 10 10 9 8 9 10 9 9 9 12 12 10 10 10 8 4 4 8 6 4 5 6 4 4 6 4 4 4 4 5 5 5 6 6 6 4 5 5 7 7 7 4 5 7 4 4 7 7 6 2 1 1 0 1 1 7 8 2 5 2 4 5 6 8 8 8 9 10 9 9 9 9 8 9 9 10 9 10
4 4 5 5 8 10 10 11 9 9 9 9 10 10 11 10 9 8 8 9 10 10 8 5 4 5 6 5 4 5 4 4 5 5 4 4 5 5 5 5 5 5 5 6 7 5 4 2 4 4 3 5 6 8 7 6 10 4 1 3 4 6 3 2 4 8 6 6 1 2 3 6 8 8 8 9 9 9 8 8 8 8 8 9 8
5 7 8 7 6 5 6 5 7 8 8 9 11 10 10 11 11 9 8 7 7 4 5 3 5 5 6 4 5 5 5 4 4 5 5 5 4 5 5 5 5 5 5 5 4 4 6 6 5 5 6 6 6 4 6 8 6 7 5 3 5 4 4 4 4 4 6 5 1 1 1 1 4 8 8 7 7 7 7 7 7 7 7 7 8
4 4 4 4 5 5 6 7 8 7 7 9 9 10 9 9 9 9 10 8 5 4 5 6 6 5 7 6 5 5 6 5 5 4 4 4 4 4 5 6 6 6 5 6 4 4 4 5 6 7 6 6 4 5 7 6 7 5 5 7 5 3 3 3 2 5 6 3 8 6 4 2 3 4 5 7 7 7 7 7 7 8 7 7 8
3 4 4 5 5 6 7 8 8 6 6 9 10 11 9 9 10 10 11 9 7 7 6 5 5 4 7 7 7 7 6 6 6 5 4 4 4 4 5 6 5 5 5 5 7 7 6 6 5 4 5 6 6 5 3 4 6 6 6 8 9 10 9 7 8 5 6 5 7 5 3 2 3 4 4 3 4 5 6 7 7 7 7 7 7
Wind_Direction
240 196 200 206 181 181 183 185 185 186 187 187 188 187 182 190 181 189 185 131 62 59 29 9 2 349 347 342 341 338 338 339 338 336 336 336 335 337 338 333 332 333 337 335 334 335 337 330 329 329 326 325 324 324 324 323 321 322 322 321 315 315 312 306 300 299 296 295 294 288 282 281 281 277 273 274 272 271 270 273 275 270 267 269 277
183 202 189 210 187 180 179 181 183 186 186 187 187 188 181 183 190 195 169 130 97 53 38 15 359 352 348 345 343 342 342 342 340 338 337 336 338 339 338 332 333 338 336 337 336 338 333 331 330 332 332 330 331 331 327 325 327 327 327 324 320 316 311 304 301 300 298 295 291 289 285 279 278 278 275 272 271 270 266 268 273 271 249 258 271
166 166 190 197 198 177 178 177 180 185 183 184 189 180 183 187 195 190 177 140 79 65 39 20 2 355 348 347 347 345 342 342 341 339 339 339 339 341 339 332 336 339 337 339 337 333 330 336 335 336 340 340 337 333 330 330 331 331 328 325 321 316 311 305 302 297 294 291 289 288 288 289 287 285 282 273 267 262 264 265 270 272 263 269 272
151 171 173 196 197 176 176 177 179 179 182 186 181 178 182 192 194 182 164 117 88 51 41 30 8 353 351 352 348 345 344 343 342 342 340 341 341 344 338 335 337 338 339 339 335 330 338 338 343 346 342 340 338 337 337 337 334 332 327 322 318 316 312 308 305 301 296 292 291 289 289 306 298 291 283 276 269 265 260 261 263 268 269 270 272
158 157 171 193 231 174 174 174 178 180 182 183 179 178 184 190 186 177 166 106 84 37 52 30 10 359 354 351 350 346 344 343 344 344 343 342 345 344 339 336 337 338 340 334 332 333 340 344 349 344 341 337 336 336 337 335 334 332 326 323 320 314 310 309 306 302 297 293 285 285 272 262 263 277 277 271 268 266 267 268 268 269 274 275 276
158 156 166 192 223 186 172 174 179 180 182 180 176 181 185 183 176 185 150 126 38 71 34 28 19 3 355 351 349 347 346 347 346 347 344 346 349 345 339 336 338 337 336 332 331 339 342 342 341 343 338 336 334 336 337 336 333 328 327 325 319 318 315 311 307 303 299 292 289 286 266 250 250 252 263 265 259 260 263 266 266 265 266 269 269
157 157 163 182 197 181 174 174 178 181 182 178 180 182 184 184 186 159 166 351 74 40 37 32 19 6 353 349 348 350 349 350 350 349 348 350 349 347 339 337 339 336 332 331 332 339 341 338 339 343 336 333 333 336 336 334 333 331 329 327 327 325 322 317 313 307 301 301 330 280 256 255 251 246 251 256 258 256 254 255 259 260 260 264 267
141 155 165 173 178 186 171 177 180 180 181 180 181 185 185 181 170 162 270 52 38 41 37 28 22 5 353 349 350 353 353 353 353 353 352 351 348 346 340 341 337 334 332 329 336 337 342 342 339 339 339 333 332 336 336 334 336 333 334 331 332 332 327 323 318 312 308 311 281 270 269 262 259 253 253 254 253 256 255 255 254 256 259 261 264
165 172 166 169 183 183 179 179 180 183 183 179 181 185 185 179 169 185 260 73 31 32 32 30 21 7 354 352 354 354 356 358 357 355 353 350 348 346 336 340 340 335 333 334 332 338 341 346 343 338 344 332 336 336 337 339 336 336 334 335 337 335 333 332 326 324 333 329 307 289 272 263 260 257 257 253 252 254 253 254 261 261 260 261 263
178 173 174 171 183 192 181 180 184 186 183 184 186 187 192 186 181 187 132 138 32 22 22 24 21 6 356 355 355 356 357 359 358 354 350 347 349 347 342 344 342 340 335 332 333 341 344 346 344 337 346 338 338 337 338 338 334 338 337 338 339 335 332 337 338 344 321 310 289 285 276 268 255 258 260 259 257 257 258 258 255 255 255 258 265
179 181 182 185 186 198 184 185 187 190 188 189 191 194 195 190 188 171 220 247 346 2 18 18 11 10 2 358 357 358 357 357 356 353 349 346 346 347 345 344 344 339 334 337 341 343 347 346 347 346 348 344 336 335 336 335 336 336 338 338 339 334 328 328 339 296 288 289 287 285 285 290 287 273 265 263 258 257 260 262 261 257 256 255 253
184 187 189 194 192 199 189 187 191 194 194 194 198 198 198 195 192 214 215 274 331 348 1 5 11 8 7 2 358 357 356 356 355 353 353 347 343 344 345 345 340 337 332 340 343 343 347 345 350 348 350 344 338 335 336 336 336 334 336 339 341 335 329 322 326 281 268 265 269 264 260 271 269 273 276 274 267 262 260 258 254 253 252 253 250
188 189 197 200 197 206 191 190 195 197 201 203 203 205 205 205 205 214 225 281 316 328 341 357 3 11 10 6 360 357 356 356 358 359 356 349 343 343 344 343 339 340 342 343 345 344 344 346 349 352 347 348 341 338 338 336 334 334 333 340 340 333 326 319 311 294 279 260 255 264 260 259 254 268 279 278 276 269 263 262 258 252 249 246 244
178 192 198 200 197 213 199 194 198 201 204 207 207 206 213 211 213 215 230 239 293 316 332 344 5 13 13 12 6 1 357 357 359 3 354 350 345 343 343 342 338 344 342 345 345 346 345 344 347 351 351 348 345 342 339 337 333 336 335 337 336 331 324 320 307 293 288 278 269 257 247 249 249 266 270 271 267 267 263 258 254 251 248 245 244
170 189 195 198 205 205 212 197 201 204 208 208 206 212 215 217 218 226 229 249 266 309 320 338 2 12 20 21 12 3 360 359 359 360 355 348 345 345 342 340 341 345 347 347 347 349 345 344 344 350 351 350 347 345 344 339 338 340 336 335 333 331 326 314 306 285 275 276 272 271 265 254 261 268 267 266 261 259 258 255 252 250 247 245 242
177 178 181 197 203 205 214 209 201 207 209 210 210 214 219 221 222 222 225 232 270 293 310 336 356 16 29 24 17 5 3 358 358 358 354 349 345 345 343 340 341 347 349 348 349 347 346 348 347 349 349 353 356 351 349 343 341 338 340 334 335 333 331 330 309 296 286 275 269 264 260 255 270 271 268 265 264 257 256 254 251 248 244 242 240
161 162 173 197 203 203 210 214 208 205 209 208 211 216 220 223 225 218 217 224 243 280 302 319 357 29 29 27 16 11 359 358 357 356 353 351 346 347 345 343 342 348 350 350 348 347 349 349 348 350 352 357 0 359 349 344 344 339 339 339 338 337 340 344 315 298 290 288 283 275 266 261 264 269 270 271 271 265 255 253 249 247 246 245 242
172 166 190 195 199 206 207 213 211 214 205 209 206 211 217 226 221 218 214 214 219 250 284 319 2 20 19 15 15 3 358 354 352 355 357 352 348 349 346 343 344 351 351 350 347 348 349 349 348 352 359 1 3 359 348 347 348 339 335 339 343 338 352 345 321 292 284 286 286 279 265 266 263 257 256 253 261 263 256 250 247 244 248 239 234
187 198 211 186 209 202 209 211 213 212 208 206 212 212 213 217 221 213 209 206 205 225 254 298 332 343 353 357 2 1 358 348 346 354 356 352 346 351 343 341 346 354 353 349 347 350 351 349 352 354 1 3 4 1 353 352 353 341 340 341 338 340 346 351 335 312 293 302 306 253 242 266 266 267 257 245 253 263 256 245 244 236 238 231 232
224 215 217 222 211 203 208 210 212 211 207 205 207 212 217 206 207 215 203 196 199 213 227 242 290 326 337 357 4 29 3 345 341 353 345 350 342 342 343 343 348 357 355 351 347 352 353 352 353 355 0 7 5 5 5 2 359 352 352 345 339 338 341 339 325 312 307 301 297 308 295 286 271 257 251 227 218 229 220 236 218 243 242 206 218
240 234 222 222 213 207 213 208 214 210 208 205 208 212 217 212 203 202 200 195 194 202 205 225 285 337 351 344 20 24 17 348 338 332 342 342 337 335 343 345 352 356 359 353 347 353 355 353 354 359 3 9 10 4 9 1 359 2 357 349 342 338 339 328 324 333 342 339 335 301 8 11 230 229 222 192 194 192 186 181 168 190 93 87 91
223 234 233 225 211 216 211 212 211 215 204 202 207 208 220 217 202 203 200 196 197 197 209 170 180 104 333 360 20 29 13 337 334 330 342 338 332 332 346 348 354 357 1 354 346 354 356 352 356 358 7 9 7 347 352 6 4 7 353 343 342 342 340 324 332 353 353 354 355 2 348 27 89 106 113 112 110 113 126 131 131 106 92 90 91
237 228 233 214 210 209 211 211 214 207 198 205 206 210 207 216 207 199 203 193 195 205 189 189 171 204 265 284 17 76 339 354 327 333 334 350 335 338 351 351 352 359 2 353 348 352 356 353 355 359 3 2 356 350 351 354 3 8 8 346 356 349 331 327 352 8 4 350 357 353 357 26 60 104 103 113 128 125 124 115 107 92 93 90 89
223 211 217 208 204 210 207 206 206 202 188 204 208 210 211 208 214 205 197 200 203 210 199 201 201 211 223 207 170 182 90 13 343 344 352 5 339 348 353 352 350 356 2 356 350 354 356 355 356 358 359 353 351 360 3 2 7 10 16 8 1 349 347 349 358 1 3 358 355 5 17 47 58 87 116 125 121 116 112 106 101 100 95 96 98
211 203 219 216 210 209 204 213 209 194 193 201 196 207 202 197 225 213 202 202 210 219 218 211 211 212 209 191 168 167 90 54 10 354 13 6 350 352 355 349 340 350 0 356 352 349 359 353 353 350 351 356 356 2 9 15 15 17 21 14 358 350 356 2 0 358 3 2 4 16 23 37 130 143 115 120 115 108 105 104 101 97 99 101 102
182 192 217 216 215 204 202 208 195 201 198 194 197 200 170 199 212 215 204 222 216 223 223 221 220 222 202 167 151 119 69 52 34 17 15 20 353 353 348 335 347 351 356 353 348 358 356 355 352 350 345 352 358 1 17 23 16 15 22 25 11 356 358 4 6 5 5 6 8 14 24 50 94 61 79 106 116 115 111 106 102 103 103 105 104
202 218 210 217 213 207 209 198 202 203 209 203 197 179 189 199 198 192 183 228 211 230 245 234 231 210 184 163 148 147 96 72 48 24 22 17 353 349 342 337 343 352 350 359 347 353 360 356 353 350 345 353 358 10 13 21 20 13 11 16 18 8 8 9 8 8 9 7 13 18 23 32 55 60 73 108 110 105 112 110 108 106 105 103 104
193 226 215 209 208 213 202 191 210 199 209 194 189 192 198 187 200 192 200 211 184 221 234 224 216 205 183 168 146 143 146 108 82 54 5 14 2 331 325 339 355 353 339 3 355 355 2 1 356 2 2 359 4 15 14 21 22 22 18 15 15 16 16 17 14 8 11 10 12 18 28 32 54 62 64 60 62 76 89 103 106 106 104 104 103
225 225 212 209 217 209 188 203 206 204 201 177 193 196 185 189 193 189 205 200 192 215 214 195 198 200 168 156 144 131 124 125 130 106 36 23 341 355 346 347 351 358 355 2 16 358 2 2 5 9 6 6 7 18 16 26 25 28 31 27 21 17 14 17 18 15 12 13 8 18 21 29 33 38 63 65 67 70 78 86 94 103 105 103 101
220 219 203 219 216 197 194 203 202 198 191 171 199 181 187 188 198 199 203 190 204 208 183 186 205 167 173 163 170 151 164 165 144 151 100 10 7 357 356 354 359 353 9 3 354 7 5 1 13 20 20 10 20 7 22 34 29 31 33 36 27 20 12 13 17 19 15 15 17 14 21 26 29 28 34 54 58 60 67 76 72 93 101 106 106
210 225 218 218 209 184 210 207 201 197 175 189 189 193 178 195 199 195 189 198 198 172 185 185 186 185 182 169 166 165 150 144 141 149 120 101 23 24 356 341 15 6 2 352 340 8 12 35 26 25 30 21 23 7 23 42 36 33 33 36 26 24 19 14 19 20 22 19 22 19 20 21 21 29 29 33 47 54 66 76 82 84 95 102 105
203 223 219 199 191 205 209 207 199 191 182 195 189 188 190 198 193 179 196 201 168 177 180 181 188 195 181 174 166 161 148 156 140 148 126 112 61 23 340 10 1 349 360 347 354 4 34 42 40 36 50 48 34 28 24 42 39 31 32 33 24 29 21 17 22 22 20 22 24 26 23 25 23 25 29 28 34 44 58 69 74 76 79 95 107
219 220 211 186 206 204 205 207 196 191 189 193 191 194 190 186 177 191 196 182 183 171 179 191 195 188 183 181 170 159 172 154 168 145 140 123 106 51 15 7 343 344 354 355 8 18 47 46 39 37 50 53 46 35 40 43 39 30 32 29 29 27 22 24 25 24 21 22 26 24 27 24 23 23 24 28 27 31 40 76 82 85 87 97 102
214 210 185 208 206 201 202 191 191 193 197 193 190 186 188 184 185 188 184 174 181 178 194 190 183 178 183 184 166 169 169 170 143 136 127 120 109 98 39 356 348 356 10 22 49 37 58 62 46 63 54 59 55 41 52 42 34 37 38 32 38 27 21 29 28 26 23 24 24 32 31 26 20 23 24 21 25 27 32 60 97 102 102 90 96
207 193 202 211 192 199 185 192 191 196 193 195 189 191 181 178 182 184 184 182 179 188 190 173 176 182 173 179 172 169 167 170 161 143 137 127 119 95 43 344 328 32 47 30 70 56 68 71 55 86 67 64 64 55 61 57 42 39 30 37 39 32 29 31 26 28 25 23 29 32 34 26 25 25 20 23 23 19 25 40 48 74 73 83 82
204 207 205 188 199 197 188 191 185 192 196 193 191 185 180 182 181 181 182 183 178 188 179 184 179 168 173 175 176 173 162 162 170 147 133 144 137 128 164 359 29 68 66 44 61 63 78 80 46 85 98 67 73 67 57 61 51 46 37 39 40 37 38 28 27 27 23 26 31 30 30 31 26 23 19 23 21 14 21 24 33 47 68 69 74
202 196 195 189 197 193 189 186 186 189 191 193 183 178 165 175 181 183 184 176 181 190 185 167 152 166 174 175 176 178 163 163 166 167 135 147 139 135 168 128 90 95 77 62 64 46 94 92 62 46 96 103 86 82 65 62 57 50 43 40 35 41 41 30 28 26 21 33 28 28 28 26 26 21 22 23 20 19 17 21 24 39 39 62 71
199 197 194 188 194 187 188 189 186 184 183 183 181 176 173 168 177 179 174 179 194 185 169 158 173 175 165 179 176 178 173 165 157 166 131 142 150 147 146 134 121 97 86 74 69 60 71 104 91 49 80 107 96 93 87 76 67 59 48 42 37 43 39 36 31 29 29 28 28 27 23 23 24 24 22 24 21 21 19 19 26 32 33 35 52
198 196 190 193 184 185 185 187 178 178 177 170 159 144 130 114 102 134 159 178 159 145 153 172 177 162 176 171 170 178 178 171 162 165 144 150 137 138 144 152 138 113 99 91 80 82 83 80 110 96 66 73 111 104 107 98 81 69 61 47 47 43 43 42 38 37 32 28 27 21 22 23 21 24 23 22 21 20 22 26 27 31 36 36 39
191 185 186 182 184 175 184 185 181 171 154 144 139 142 142 157 154 111 145 183 158 156 181 186 165 176 175 167 172 177 180 177 172 170 163 156 148 153 149 148 149 129 124 117 117 124 125 114 114 115 105 85 73 110 114 104 86 73 69 60 52 48 44 43 42 38 34 32 26 21 26 16 26 22 23 20 22 20 22 21 24 23 27 39 42
185 179 182 189 183 180 172 186 180 164 160 157 163 160 160 165 160 189 191 181 181 178 180 186 185 186 173 173 174 179 178 179 177 164 169 165 156 145 136 147 155 141 146 158 155 141 133 128 125 118 124 118 113 138 132 104 102 75 64 63 57 49 50 44 43 36 33 29 27 30 23 26 22 25 18 21 25 25 22 20 20 21 21 19 27
197 181 190 191 188 178 182 182 167 172 177 175 170 175 180 182 163 179 160 156 158 168 191 210 200 189 181 179 181 176 175 180 181 184 168 163 157 161 159 163 161 147 133 132 140 132 132 133 135 100 71 133 146 181 185 87 32 125 117 76 61 56 51 46 40 33 30 27 26 31 28 29 25 18 17 23 27 27 24 18 22 25 21 12 18
191 195 195 181 179 181 189 176 177 176 181 176 168 180 178 167 160 160 159 141 218 173 170 180 175 183 192 188 179 174 170 179 182 185 172 179 174 168 177 162 165 150 131 137 136 145 162 160 165 143 137 25 131 192 207 155 140 136 112 99 19 47 5 30 32 33 26 26 26 30 24 28 22 20 16 27 26 22 20 17 22 25 21 19 17
184 185 177 184 185 189 186 179 182 182 176 181 179 169 150 123 89 122 110 116 169 136 73 87 139 148 202 202 194 176 174 179 181 187 191 184 177 182 166 166 173 174 160 156 164 166 165 178 176 164 146 141 166 211 207 185 148 141 69 95 171 120 55 5 24 14 14 29 30 28 25 23 20 22 24 30 21 19 19 18 24 20 20 18 12
197 191 186 187 188 192 188 182 178 182 181 175 167 147 123 102 96 75 84 78 59 90 113 185 191 197 190 194 210 185 180 181 180 190 189 193 188 179 173 177 171 179 165 162 173 182 185 182 175 169 178 156 185 194 200 172 181 113 147 107 66 41 173 194 135 27 12 22 20 23 25 22 23 24 26 25 22 24 17 22 20 22 19 16 16
208 203 194 194 187 187 179 178 174 179 178 176 164 156 161 153 145 142 154 173 168 165 196 198 191 199 205 187 189 190 183 184 184 187 200 186 190 187 179 170 179 173 182 179 179 156 175 178 195 183 187 218 161 158 174 17 127 108 158 164 164 170 164 191 84 95 20 51 14 22 26 21 24 27 27 26 21 20 19 22 20 23 19 19 14
220 184 184 192 190 184 182 179 177 180 177 171 167 161 159 167 174 180 181 184 190 215 202 181 187 198 170 187 196 191 191 183 192 191 195 199 191 185 182 182 179 179 175 156 175 193 189 192 172 185 200 168 140 171 179 180 90 61 54 136 161 123 145 132 164 114 72 346 20 16 17 17 23 30 28 24 19 21 19 20 22 22 23 18 20
182 165 188 186 189 188 181 184 180 177 178 169 173 174 170 174 178 188 187 192 196 204 186 185 161 155 177 196 189 206 200 196 190 195 196 196 189 190 184 178 177 184 173 186 191 195 181 171 175 184 168 184 184 180 183 177 176 195 57 68 78 97 74 92 130 154 141 132 11 5 33 25 30 32 27 21 19 19 17 18 23 22 21 20 18
181 187 191 195 192 183 181 174 180 178 179 175 175 184 179 178 182 182 191 209 202 178 143 139 160 166 181 195 197 208 209 209 202 197 197 195 193 188 182 182 182 185 188 187 190 178 188 178 171 174 187 198 201 190 158 190 193 170 123 69 87 79 66 71 95 93 136 124 176 216 189 277 47 29 15 17 17 20 18 19 22 24 20 19 14
196 180 168 155 167 163 175 181 192 185 176 177 181 184 184 174 181 188 196 196 176 139 149 164 174 175 191 198 206 206 210 212 213 205 199 197 194 184 184 191 194 188 185 185 178 183 195 194 193 189 182 182 192 179 191 182 191 170 167 154 134 118 80 91 83 108 69 85 156 177 197 140 72 6 2 11 15 15 20 18 25 21 21 16 11
179 168 167 170 167 174 181 187 196 178 174 183 181 188 189 184 190 191 195 191 181 165 160 177 171 176 200 204 203 212 205 214 203 208 199 192 195 192 190 199 194 190 183 172 189 192 195 196 191 176 176 178 176 172 154 171 172 173 174 171 171 174 172 175 182 185 143 130 99 113 90 71 122 114 10 11 21 24 26 28 27 22 17 14 8